IZ3VCM Weather Reports


Display with metric or nautical units.
time (UTC)temp
F
wind
direction
speed
MPH
gust
MPH
rain 1hr
in
rain 24hr
in
rain mn
in
humidity
%
barometer
mb
20260503221504 56 0 0.0 0.0 0.00 0.00 0.00 83 1016.4
20260503220006 56 0 0.0 0.0 0.00 0.00 0.00 82 1016.2
20260503214504 57 0 0.0 0.0 0.00 0.00 0.00 81 1016.1
20260503213006 57 0 0.0 0.0 0.00 0.00 0.00 79 1016.1
20260503211503 58 0 0.0 0.0 0.00 0.00 0.00 78 1016.1
20260503210006 60 0 0.0 0.0 0.00 0.00 0.00 75 1016.1
20260503204503 61 0 0.0 0.0 0.00 0.00 0.00 74 1016.2
20260503203006 62 0 0.0 0.0 0.00 0.00 0.00 72 1016.2
20260503201503 62 0 0.0 0.0 0.00 0.00 0.00 71 1016.1
20260503200005 63 135 0.0 1.0 0.00 0.00 0.00 69 1016.1
20260503194503 64 0 0.0 0.0 0.00 0.00 0.00 67 1015.9
20260503193006 65 0 0.0 0.0 0.00 0.00 0.00 66 1016.1
20260503191504 66 135 1.0 2.0 0.00 0.00 0.00 63 1015.9
20260503190005 67 0 0.0 0.0 0.00 0.00 0.00 61 1015.7
20260503184503 68 0 0.0 0.0 0.00 0.00 0.00 58 1015.7
20260503183005 69 0 0.0 0.0 0.00 0.00 0.00 56 1015.5
20260503181504 71 157 0.0 2.0 0.00 0.00 0.00 54 1015.3
20260503180005 71 0 0.0 0.0 0.00 0.00 0.00 52 1015.2
20260503174503 72 135 1.0 1.0 0.00 0.00 0.00 50 1015.3
20260503173006 75 0 0.0 0.0 0.00 0.00 0.00 46 1015.2
20260503171503 80 0 0.0 0.0 0.00 0.00 0.00 39 1015.0
20260503081503 77 0 0.0 0.0 0.00 0.00 0.00 47 1019.0
20260503071503 74 0 0.0 0.0 0.00 0.00 0.00 53 1019.4